Weather observations for the past three days for
Bluefield, Mercer County Airport
Imperial (Metric)
Date Time (edt) Wind (mph) Vis. (mi.) Weather Sky Cond. Temperature (ºF) Relative Humidity Wind Chill (°F) Heat Index (°F) Pressure Precipitation (in)
Air Dwpt 6 hour altimeter (in) sea level (mb) 1 hr 3 hr 6 hr
Max. Min.
24 09:52 NW 9 G 21 10.00 Partly Cloudy FEW021 SCT032 SCT042 72 61 68% 30 1011.7
24 08:52 Vrbl 7 10.00 Mostly Cloudy BKN017 70 62.1 76% 29.99 1011.5
24 07:52 W 9 10.00 Mostly Cloudy BKN012 68 64 72 68 87% 29.97 1010.8
24 06:52 W 5 10.00 Mostly Cloudy FEW013 SCT020 BKN045 68 64 87% 29.95 1010.1
24 05:52 W 6 10.00 Overcast BKN010 BKN015 OVC037 68 64.9 90% 29.94 1009.6
24 04:52 Vrbl 6 10.00 Overcast BKN014 OVC020 69.1 64.9 87% 29.93 1009.1
24 03:52 W 9 G 18 10.00 Mostly Cloudy SCT015 BKN022 BKN028 70 64 82% 29.92 1008.9
24 02:52 W 10 10.00 Overcast BKN015 OVC026 71.1 66 84% 29.92 1008.8
24 01:52 W 8 10.00 Mostly Cloudy BKN020 BKN025 72 64 77 72 76% 29.93 1009.1
24 00:52 W 10 10.00 Overcast FEW034 BKN070 OVC085 73.9 63 69% 29.94 1009.2
23 23:52 W 8 10.00 Overcast BKN039 OVC050 73.9 61 64% 29.93 1009.0
23 22:52 W 9 10.00 Overcast OVC042 75 61 62% 77 29.93 1008.9
23 21:52 W 8 10.00 Overcast BKN047 OVC070 75 60.1 60% 77 29.93 1009.3
23 20:52 SW 10 10.00 Overcast OVC060 75.9 60.1 58% 78 29.92 1009.0
23 19:52 SW 10 10.00 Overcast OVC070 77 59 84 77 54% 79 29.94 1009.6
23 18:52 W 14 G 23 10.00 Fair CLR 79 60.1 52% 80 29.94 1009.5
23 17:52 W 9 10.00 A Few Clouds FEW070 79 62.1 56% 80 29.95 1009.9
23 16:52 Calm 10.00 Mostly Cloudy BKN070 81 60.1 49% 82 29.96 1010.2
23 15:52 W 9 G 22 10.00 Fair CLR 82 60.1 47% 82 29.97 1010.5
23 14:52 W 14 G 24 10.00 A Few Clouds FEW049 FEW065 81 61 51% 82 29.98 1010.9
23 13:52 W 12 G 21 10.00 A Few Clouds FEW060 80.1 62.1 82 72 54% 81 30 1011.5
23 12:52 W 10 G 18 10.00 Mostly Cloudy SCT045 BKN060 80.1 61 52% 81 30.01 1011.7
23 11:52 W 14 G 24 10.00 Mostly Cloudy FEW040 BKN050 79 62.1 56% 80 30.03 1012.7
23 10:52 W 10 G 22 10.00 Partly Cloudy FEW037 SCT046 79 64 60% 81 30.04 1012.9
23 09:52 W 10 10.00 Fair CLR 77 64 64% 79 30.05 1013.4
23 08:52 W 14 G 21 10.00 Fair CLR 73.9 64 71% 30.05 1013.2
23 07:52 W 7 10.00 Fair CLR 72 62.1 72 68 71% 30.05 1013.2
23 06:52 W 9 10.00 Fair CLR 70 61 73% 30.05 1013.2
23 05:52 W 6 10.00 Fair CLR 68 60.1 76% 30.06 1013.5
23 04:52 Calm 10.00 A Few Clouds FEW055 68 59 73% 30.07 1014.0
23 03:52 SW 3 10.00 Fair CLR 69.1 57.9 68% 30.08 1013.9
23 02:52 SW 5 10.00 Fair CLR 71.1 55.9 59% 30.08 1014.0
23 01:52 SW 3 10.00 Fair CLR 70 55 82 70 59% 30.09 1014.6
23 00:52 SW 5 10.00 Fair CLR 73 54 51% 30.1 1014.8
22 23:52 SW 3 10.00 Fair CLR 73 54 51% 30.11 1015.1
22 22:52 SW 3 10.00 Fair CLR 73.9 53.1 48% 30.11 1015.4
22 21:52 Calm 10.00 Fair CLR 73.9 55.9 54% 30.11 1015.6
22 20:52 W 3 10.00 Fair CLR 77 57 50% 79 30.11 1015.4
22 19:52 W 5 10.00 Fair CLR 82 55.9 88 82 41% 82 30.11 1015.3
22 18:52 SW 8 10.00 Fair CLR 86 48.9 28% 83 30.11 1015.1
22 17:52 NW 7 10.00 A Few Clouds FEW080 87.1 53.1 31% 85 30.11 1015.4
22 16:52 Calm 10.00 Mostly Cloudy BKN080 84 55.9 38% 83 30.13 1016.1
22 15:52 SW 6 10.00 Fair CLR 86 55 35% 84 30.15 1016.4
22 14:52 E 3 10.00 Mostly Cloudy BKN075 84.9 55 36% 84 30.17 1017.1
22 13:52 Calm 10.00 A Few Clouds FEW060 84 59 84.9 70 43% 84 30.19 1017.9
22 12:52 Calm 10.00 A Few Clouds FEW065 82 57 43% 82 30.21 1018.6
22 11:52 N 7 10.00 Fair CLR 82 59 46% 82 30.23 1019.3
22 10:52 Vrbl 3 10.00 Fair CLR 78.1 64 62% 80 30.24 1019.8
22 09:52 W 7 10.00 Fair CLR 75.9 61 60% 78 30.26 1020.4
22 08:52 W 5 10.00 Fair CLR 73.9 60.1 62% 30.26 1020.7
22 07:52 Calm 10.00 Fair CLR 70 59 72 64.9 68% 30.26 1020.6
22 06:52 SW 5 10.00 Fair CLR 68 57.9 70% 30.26 1020.6
22 05:52 Calm 10.00 Fair CLR 66.9 57 71% 30.26 1020.7
22 04:52 Calm 10.00 Fair CLR 68 57 68% 30.25 1020.3
22 03:52 Calm 10.00 Fair CLR 70 57 64% 30.25 1020.0
22 02:52 Calm 10.00 Fair CLR 71.1 57.9 63% 30.26 1020.4
22 01:52 Vrbl 3 10.00 Fair CLR 70 57.9 79 69.1 66% 30.26 1020.5
22 00:52 S 3 10.00 Fair CLR 71.1 57.9 63% 30.28 1021.1
21 23:52 Calm 10.00 Fair CLR 71.1 57 61% 30.29 1021.6
21 22:52 Calm 10.00 A Few Clouds FEW060 72 57.9 61% 30.28 1021.2
21 21:52 Calm 10.00 Partly Cloudy SCT060 75 62.1 64% 77 30.27 1020.8
21 20:52 Calm 10.00 A Few Clouds FEW060 78.1 57.9 50% 79 30.26 1020.6
21 19:52 S 3 10.00 A Few Clouds FEW065 79 59 86 79 50% 80 30.26 1020.7
21 18:52 S 3 10.00 Fair CLR 82 60.1 47% 82 30.26 1020.9
21 17:52 Calm 10.00 A Few Clouds FEW060 82.9 57.9 43% 83 30.27 1021.2
21 16:52 Vrbl 3 10.00 Partly Cloudy SCT060 84 60.1 44% 84 30.28 1021.5
21 15:52 E 5 10.00 Partly Cloudy FEW055 SCT070 84 59 43% 84 30.29 1021.9
21 14:52 Vrbl 5 10.00 A Few Clouds FEW075 80.1 62.1 54% 81 30.31 1022.7
21 13:52 Calm 10.00 Partly Cloudy SCT048 82.9 62.1 82.9 68 49% 84 30.33 1023.0
21 12:52 Vrbl 3 10.00 Fair CLR 81 62.1 53% 82 30.35 1023.6
21 11:52 SE 3 10.00 A Few Clouds FEW039 FEW060 77 63 62% 79 30.37 1024.4
21 10:52 Vrbl 6 10.00 Fair CLR 79 62.1 56% 80 30.37 1024.4
Date Time (edt) Wind (mph) Vis. (mi.) Weather Sky Cond. Air Dwpt Max. Min. Relative Humidity Wind Chill (°F) Heat Index (°F) altimeter (in) sea level (mb) 1 hr 3 hr 6 hr
6 hour
Temperature (ºF) Pressure Precipitation (in)